Back to catalog

GSAT 8

AliveCommunicationsGEO
NORAD 37605·PAYLOAD·🇮🇳 India

Launched May 20, 2011 from Guiana Space Centre

Loading…

TLE

FreshSource: Space-Track

Epoch: Sep 14, 2026, 14:03 UTC

1 37605U 11022A   26257.58602106  .00000077  00000-0  00000-0 0  9991
2 37605   2.3559  80.6364 0005793 156.8414  22.1485  1.00272692 54119

Track GSAT 8 in real time with AllMySat

Download on the App Store